FW2834 Weather Reports


Display with metric or nautical units.
time (UTC)temp
F
wind
direction
speed
MPH
gust
MPH
rain 1hr
in
rain 24hr
in
rain mn
in
humidity
%
barometer
mb
20260505165526 66 30 0.0 2.0 0.00 0.05 0.05 61 1007.7
20260505165126 66 30 0.0 3.0 0.00 0.05 0.05 60 1007.6
20260505164526 66 349 0.0 3.0 0.00 0.05 0.05 61 1007.7
20260505164028 67 297 0.0 3.0 0.00 0.05 0.05 61 1007.6
20260505163528 67 350 0.0 0.0 0.00 0.05 0.05 61 1007.6
20260505163026 67 288 0.0 0.0 0.00 0.05 0.05 61 1007.7
20260505162525 67 288 0.0 1.0 0.00 0.05 0.05 62 1007.8
20260505162025 67 288 0.0 3.0 0.00 0.05 0.05 62 1007.7
20260505161525 67 288 0.0 3.0 0.00 0.05 0.05 62 1007.8
20260505161029 67 244 0.0 3.0 0.00 0.05 0.05 62 1007.7
20260505160525 67 313 0.0 3.0 0.00 0.05 0.05 62 1007.7
20260505153021 66 83 0.0 4.0 0.00 0.05 0.05 66 1007.3
20260505152521 65 84 0.0 4.0 0.00 0.05 0.05 66 1007.3
20260505152022 65 148 1.0 7.0 0.00 0.05 0.05 66 1007.3
20260505151520 64 346 2.0 7.0 0.00 0.05 0.05 67 1007.3
20260505151020 64 204 0.0 4.0 0.00 0.05 0.05 69 1007.5
20260505150518 64 135 0.0 4.0 0.00 0.05 0.05 69 1007.5
20260505140512 60 109 0.0 4.0 0.00 0.05 0.05 77 1006.9
20260505125006 59 64 0.0 2.0 0.00 0.05 0.05 78 1007.3
20260505124505 59 51 0.0 1.0 0.00 0.05 0.05 77 1007.5
20260505124005 59 78 0.0 1.0 0.00 0.05 0.05 77 1007.6
20260505123505 59 78 0.0 3.0 0.00 0.05 0.05 77 1007.7
20260505123002 58 78 0.0 3.0 0.01 0.05 0.05 76 1007.6
20260505122502 58 152 0.0 1.0 0.01 0.05 0.05 76 1007.7
20260505122002 58 153 0.0 1.0 0.01 0.05 0.05 76 1007.8
20260505121501 58 153 0.0 2.0 0.01 0.05 0.05 75 1007.8
20260505121103 58 153 0.0 2.0 0.01 0.05 0.05 75 1007.7
20260505120559 58 155 0.0 2.0 0.01 0.05 0.05 74 1007.9
20260505120116 58 155 0.0 2.0 0.02 0.05 0.05 74 1008.0
20260505115557 58 96 0.0 2.0 0.02 0.05 0.05 74 1007.9
20260505115100 58 95 0.0 1.0 0.02 0.05 0.05 73 1007.9
20260505114554 58 95 0.0 1.0 0.02 0.05 0.05 73 1007.9
20260505114054 58 95 0.0 1.0 0.02 0.05 0.05 73 1007.9
20260505113553 58 95 0.0 1.0 0.02 0.05 0.05 73 1007.7
20260505113059 58 95 0.0 2.0 0.02 0.04 0.04 73 1007.1
20260505112557 58 96 0.0 2.0 0.03 0.04 0.04 73 1006.9
20260505112051 58 95 0.0 2.0 0.04 0.04 0.04 72 1007.0
20260505111549 58 93 0.0 2.0 0.04 0.04 0.04 72 1007.0
20260505111048 59 15 0.0 1.0 0.04 0.04 0.04 71 1007.2
20260505110548 59 15 0.0 0.0 0.04 0.04 0.04 71 1007.2
20260505102040 61 14 0.0 2.0 0.00 0.00 0.00 66 1007.7
20260505101539 61 14 0.0 4.0 0.00 0.00 0.00 66 1007.8
20260505101039 61 15 0.0 4.0 0.00 0.00 0.00 65 1007.9
20260505100539 61 319 1.0 5.0 0.00 0.00 0.00 64 1008.0
20260505100038 61 319 1.0 5.0 0.00 0.00 0.00 63 1008.0
20260505095537 61 316 1.0 5.0 0.00 0.00 0.00 62 1007.7
20260505095036 61 311 1.0 3.0 0.00 0.00 0.00 61 1007.6
20260505094537 61 168 0.0 1.0 0.00 0.00 0.00 60 1007.5
20260505094034 61 168 0.0 0.0 0.00 0.00 0.00 60 1007.2
20260505093533 61 168 0.0 0.0 0.00 0.00 0.00 60 1007.1
20260505093033 61 168 0.0 0.0 0.00 0.00 0.00 60 1007.1
20260505092534 61 168 0.0 0.0 0.00 0.00 0.00 60 1006.9
20260505092032 61 168 0.0 0.0 0.00 0.00 0.00 60 1006.8
20260505091531 61 168 0.0 3.0 0.00 0.00 0.00 60 1006.8
20260505091033 61 168 0.0 3.0 0.00 0.00 0.00 60 1006.6
20260505090630 61 119 0.0 1.0 0.00 0.00 0.00 60 1006.6
20260505090035 61 119 0.0 2.0 0.00 0.00 0.00 60 1006.5
20260505085531 61 119 0.0 2.0 0.00 0.00 0.00 60 1006.4
20260505085028 61 119 0.0 3.0 0.00 0.00 0.00 59 1006.4
20260505084528 61 119 0.0 2.0 0.00 0.00 0.00 60 1006.3
20260505084027 61 119 0.0 3.0 0.00 0.00 0.00 60 1006.3
20260505083526 61 119 0.0 3.0 0.00 0.00 0.00 59 1006.3
20260505083025 61 119 0.0 2.0 0.00 0.00 0.00 59 1006.2
20260505082525 61 119 0.0 2.0 0.00 0.00 0.00 59 1006.1
20260505082026 62 119 0.0 0.0 0.00 0.00 0.00 58 1006.1
20260505081537 62 119 0.0 0.0 0.00 0.00 0.00 58 1006.1
20260505081024 62 119 0.0 0.0 0.00 0.00 0.00 58 1006.0
20260505080524 62 119 0.0 2.0 0.00 0.00 0.00 58 1006.0
20260505080027 62 119 0.0 2.0 0.00 0.00 0.00 58 1006.1
20260505075521 62 119 0.0 0.0 0.00 0.00 0.00 58 1006.0
20260505075025 62 119 0.0 0.0 0.00 0.00 0.00 58 1006.1
20260505074623 62 119 0.0 0.0 0.00 0.00 0.00 58 1006.1
20260505074019 62 119 0.0 0.0 0.00 0.00 0.00 57 1005.9
20260505073520 62 119 0.0 0.0 0.00 0.00 0.00 57 1005.8
20260505073023 63 119 0.0 2.0 0.00 0.00 0.00 57 1005.7
20260505072518 63 119 0.0 2.0 0.00 0.00 0.00 57 1005.6
20260505072018 63 119 0.0 2.0 0.00 0.00 0.00 56 1005.5
20260505071534 63 118 0.0 2.0 0.00 0.00 0.00 57 1005.4
20260505071017 63 118 0.0 2.0 0.00 0.00 0.00 56 1005.6
20260505070517 63 118 0.0 2.0 0.00 0.00 0.00 56 1005.6
20260505070017 63 118 0.0 3.0 0.00 0.00 0.00 56 1005.5
20260505065516 63 118 0.0 3.0 0.00 0.00 0.00 56 1005.5
20260505065016 63 166 0.0 3.0 0.00 0.00 0.00 56 1005.5
20260505064522 63 172 0.0 2.0 0.00 0.00 0.00 56 1005.5
20260505064019 63 173 0.0 3.0 0.00 0.00 0.00 56 1005.5
20260505063515 63 173 0.0 3.0 0.00 0.00 0.00 56 1005.6
20260505063015 63 215 0.0 3.0 0.00 0.00 0.00 56 1005.7
20260505062516 63 215 0.0 3.0 0.00 0.00 0.00 56 1005.6
20260505062014 64 293 0.0 2.0 0.00 0.00 0.00 56 1005.7
20260505061513 64 293 0.0 3.0 0.00 0.00 0.00 55 1005.6
20260505061017 64 293 0.0 3.0 0.00 0.00 0.00 55 1005.4
20260505060512 64 115 0.0 2.0 0.00 0.00 0.00 55 1005.4
20260505060011 64 115 0.0 3.0 0.00 0.00 0.00 55 1005.3
20260505055511 64 115 0.0 2.0 0.00 0.00 0.00 55 1005.2
20260505055011 64 115 0.0 8.0 0.00 0.00 0.00 55 1005.1
20260505054511 64 125 0.0 2.0 0.00 0.00 0.00 55 1005.0
20260505054011 65 126 0.0 3.0 0.00 0.00 0.00 55 1005.0
20260505053510 65 142 1.0 4.0 0.00 0.00 0.00 54 1005.1
20260505053009 65 119 0.0 4.0 0.00 0.00 0.00 55 1005.0
20260505052511 65 139 1.0 4.0 0.00 0.00 0.00 54 1004.8
20260505052007 65 140 1.0 4.0 0.00 0.00 0.00 54 1004.9
20260505051507 65 138 1.0 4.0 0.00 0.00 0.00 54 1005.1
20260505051008 65 90 1.0 4.0 0.00 0.00 0.00 54 1005.2
20260505050505 65 66 0.0 2.0 0.00 0.00 0.00 54 1005.3
20260505041601 66 142 0.0 2.0 0.00 0.00 0.00 56 1005.6
20260505041100 66 142 0.0 5.0 0.00 0.00 0.00 55 1005.7
20260505040602 66 88 0.0 5.0 0.00 0.00 0.00 55 1005.7
20260505040105 66 116 0.0 0.0 0.00 0.00 0.00 54 1005.7
20260505035558 66 116 0.0 1.0 0.00 0.00 0.00 55 1005.8
20260505035057 66 116 0.0 2.0 0.00 0.00 0.00 55 1005.8
20260505034558 66 116 0.0 2.0 0.00 0.00 0.00 55 1005.7
20260505034057 66 117 0.0 2.0 0.00 0.00 0.00 55 1005.7
20260505033557 66 115 0.0 1.0 0.00 0.00 0.00 55 1005.7
20260505033059 66 115 0.0 1.0 0.00 0.00 0.00 55 1005.6
20260505032556 66 115 0.0 3.0 0.00 0.00 0.00 55 1005.5
20260505032055 65 115 0.0 3.0 0.00 0.00 0.00 55 1005.6
20260505031558 65 117 0.0 3.0 0.00 0.00 0.00 55 1005.5
20260505031055 65 141 0.0 3.0 0.00 0.00 0.00 55 1005.4
20260505030555 65 140 0.0 3.0 0.00 0.00 0.00 55 1005.4
20260505030100 65 140 0.0 3.0 0.00 0.00 0.00 55 1005.2
20260505025556 65 140 0.0 3.0 0.00 0.00 0.00 55 1005.1
20260505025055 66 140 0.0 3.0 0.00 0.00 0.00 55 1005.0
20260505024555 66 141 0.0 3.0 0.00 0.00 0.00 55 1005.1
20260505024054 66 141 0.0 2.0 0.00 0.00 0.00 55 1005.0
20260505023554 66 141 0.0 2.0 0.00 0.00 0.00 55 1004.9
20260505023058 66 140 0.0 2.0 0.00 0.00 0.00 54 1004.8
20260505022554 66 140 0.0 2.0 0.00 0.00 0.00 54 1004.8
20260505022053 66 140 0.0 2.0 0.00 0.00 0.00 54 1004.8
20260505021557 67 140 0.0 2.0 0.00 0.00 0.00 53 1004.7
20260505021053 67 140 0.0 2.0 0.00 0.00 0.00 53 1004.7
20260505020552 67 145 0.0 2.0 0.00 0.00 0.00 53 1004.5
20260505020056 67 145 0.0 3.0 0.00 0.00 0.00 53 1004.5
20260505015552 67 145 0.0 3.0 0.00 0.00 0.00 53 1004.5
20260505015055 67 148 0.0 3.0 0.00 0.00 0.00 52 1004.5
20260505014552 67 148 0.0 3.0 0.00 0.00 0.00 52 1004.5
20260505014051 67 148 1.0 3.0 0.00 0.00 0.00 52 1004.4
20260505013552 67 151 0.0 3.0 0.00 0.00 0.00 51 1004.4
20260505013051 68 151 1.0 3.0 0.00 0.00 0.00 51 1004.2
20260505012552 68 151 0.0 2.0 0.00 0.00 0.00 51 1004.2
20260505012055 68 151 0.0 2.0 0.00 0.00 0.00 51 1004.2
20260505011554 68 151 0.0 2.0 0.00 0.00 0.00 50 1004.2
20260505011055 69 151 0.0 3.0 0.00 0.00 0.00 49 1004.3
20260505010550 69 153 0.0 2.0 0.00 0.00 0.00 49 1004.2
20260505010053 69 153 0.0 2.0 0.00 0.00 0.00 48 1004.2
20260505005550 70 153 0.0 2.0 0.00 0.00 0.00 48 1004.1
20260505005050 70 153 0.0 2.0 0.00 0.00 0.00 47 1004.0
20260505004550 70 153 0.0 2.0 0.00 0.00 0.00 47 1004.0
20260505004049 71 153 0.0 2.0 0.00 0.00 0.00 46 1004.1
20260505003549 71 153 0.0 3.0 0.00 0.00 0.00 46 1004.1
20260505003050 71 153 0.0 3.0 0.00 0.00 0.00 45 1004.0
20260505002550 71 315 0.0 3.0 0.00 0.00 0.00 45 1004.1
20260505002050 72 90 0.0 0.0 0.00 0.00 0.00 44 1004.1
20260505001549 72 90 0.0 0.0 0.00 0.00 0.00 44 1004.2
20260505001047 72 90 0.0 0.0 0.00 0.00 0.00 44 1004.3
20260505000546 73 90 0.0 2.0 0.00 0.00 0.00 43 1004.3
20260505000049 73 90 0.0 2.0 0.00 0.00 0.00 42 1004.4
20260504235546 73 90 0.0 2.0 0.00 0.00 0.00 42 1004.4
20260504235045 73 94 0.0 2.0 0.00 0.00 0.00 42 1004.5
20260504234545 73 88 0.0 3.0 0.00 0.00 0.00 41 1004.5
20260504234044 74 186 0.0 3.0 0.00 0.00 0.00 41 1004.6
20260504233545 74 286 0.0 3.0 0.00 0.00 0.00 41 1004.7
20260504233045 74 286 0.0 3.0 0.00 0.00 0.00 41 1004.7
20260504232543 74 272 0.0 6.0 0.00 0.00 0.00 41 1004.6
20260504232043 74 267 1.0 7.0 0.00 0.00 0.00 41 1004.7
20260504231543 74 332 1.0 7.0 0.00 0.00 0.00 40 1004.7
20260504231043 74 46 1.0 6.0 0.00 0.00 0.00 41 1004.6
20260504230546 74 270 1.0 6.0 0.00 0.00 0.00 40 1004.8
20260504230043 74 76 1.0 4.0 0.00 0.00 0.00 41 1004.7
20260504225545 74 186 0.0 4.0 0.00 0.00 0.00 41 1004.7
20260504225045 74 288 0.0 3.0 0.00 0.00 0.00 41 1004.8
20260504224543 74 32 1.0 4.0 0.00 0.00 0.00 41 1004.7
20260504224045 74 69 1.0 4.0 0.00 0.00 0.00 41 1004.9
20260504223542 74 88 1.0 4.0 0.00 0.00 0.00 42 1004.9
20260504223141 75 309 1.0 4.0 0.00 0.00 0.00 43 1004.9
20260504222541 75 112 0.0 3.0 0.00 0.00 0.00 46 1004.8
20260504222041 75 111 0.0 2.0 0.00 0.00 0.00 45 1004.8
20260504221543 75 111 0.0 4.0 0.00 0.00 0.00 46 1004.7
20260504221039 75 130 1.0 4.0 0.00 0.00 0.00 45 1004.8
20260504220538 75 133 0.0 2.0 0.00 0.00 0.00 43 1005.0
20260504220041 75 134 0.0 6.0 0.00 0.00 0.00 45 1005.2
20260504215537 75 273 0.0 1.0 0.00 0.00 0.00 45 1005.3
20260504215036 75 273 0.0 1.0 0.00 0.00 0.00 44 1005.4
20260504214546 75 273 0.0 2.0 0.00 0.00 0.00 44 1005.5
20260504214035 76 273 0.0 2.0 0.00 0.00 0.00 43 1005.5
20260504213535 76 270 0.0 4.0 0.00 0.00 0.00 42 1005.5
20260504213042 76 269 0.0 4.0 0.00 0.00 0.00 41 1005.5
20260504212534 76 257 0.0 6.0 0.00 0.00 0.00 42 1005.6
20260504212033 76 256 1.0 6.0 0.00 0.00 0.00 41 1005.6
20260504211532 76 309 0.0 3.0 0.00 0.00 0.00 43 1005.8
20260504211032 76 310 0.0 3.0 0.00 0.00 0.00 43 1005.7
20260504210532 76 309 0.0 6.0 0.00 0.00 0.00 42 1006.0
20260504210031 76 59 1.0 6.0 0.00 0.00 0.00 42 1005.9
20260504205532 76 172 0.0 4.0 0.00 0.00 0.00 41 1005.9
20260504205031 76 115 0.0 4.0 0.00 0.00 0.00 45 1006.0
20260504204529 76 180 0.0 4.0 0.00 0.00 0.00 42 1006.0
20260504204028 76 321 0.0 4.0 0.00 0.00 0.00 43 1006.1
20260504203528 76 119 0.0 5.0 0.00 0.00 0.00 43 1006.2
20260504203027 76 86 1.0 5.0 0.00 0.00 0.00 41 1006.3
20260504202527 76 119 1.0 3.0 0.00 0.00 0.00 42 1006.3
20260504202025 76 186 0.0 3.0 0.00 0.00 0.00 44 1006.3
20260504201524 76 195 0.0 3.0 0.00 0.00 0.00 44 1006.4
20260504201022 75 10 0.0 3.0 0.00 0.00 0.00 46 1006.5
20260504200522 75 256 1.0 3.0 0.00 0.00 0.00 45 1006.5
20260504200034 75 301 0.0 3.0 0.00 0.00 0.00 49 1006.6
20260504195519 74 225 0.0 5.0 0.00 0.00 0.00 47 1006.7
20260504195018 74 204 1.0 5.0 0.00 0.00 0.00 46 1006.8
20260504194520 73 274 0.0 3.0 0.00 0.00 0.00 50 1006.9
20260504194016 73 274 0.0 4.0 0.00 0.00 0.00 49 1007.1
20260504193516 72 306 1.0 4.0 0.00 0.00 0.00 52 1007.3
20260504193014 72 213 0.0 5.0 0.00 0.00 0.00 53 1007.4
20260504192513 71 213 0.0 5.0 0.00 0.00 0.00 51 1007.6
20260504192012 71 305 1.0 4.0 0.00 0.00 0.00 51 1007.4
20260504191527 71 318 1.0 4.0 0.00 0.00 0.00 52 1007.7
20260504191012 70 322 1.0 4.0 0.00 0.00 0.00 52 1007.8
20260504190512 70 306 1.0 5.0 0.00 0.00 0.00 52 1007.8
20260504190012 70 183 0.0 3.0 0.00 0.00 0.00 51 1007.9
20260504185511 70 327 1.0 7.0 0.00 0.00 0.00 51 1008.1
20260504185011 70 284 0.0 7.0 0.00 0.00 0.00 51 1008.1
20260504184514 70 246 0.0 1.0 0.00 0.00 0.00 50 1008.0
20260504184011 71 248 0.0 2.0 0.00 0.00 0.00 51 1008.1
20260504183511 71 250 0.0 3.0 0.00 0.00 0.00 50 1008.0
20260504183024 71 248 0.0 5.0 0.00 0.00 0.00 50 1007.9
20260504182510 71 248 0.0 8.0 0.00 0.00 0.00 51 1007.8
20260504182010 71 173 1.0 5.0 0.00 0.00 0.00 49 1007.7
20260504181513 71 269 1.0 10.0 0.00 0.00 0.00 50 1007.7
20260504181010 71 192 2.0 10.0 0.00 0.00 0.00 47 1007.6
20260504180515 71 159 1.0 5.0 0.00 0.00 0.00 48 1007.4
20260504180010 71 325 1.0 5.0 0.00 0.00 0.00 49 1007.3
20260504175508 71 40 1.0 6.0 0.00 0.00 0.00 49 1007.3
20260504175007 71 295 1.0 4.0 0.00 0.00 0.00 52 1007.3
20260504174506 70 330 1.0 7.0 0.00 0.00 0.00 51 1007.2
20260504174005 70 96 1.0 7.0 0.00 0.00 0.00 52 1007.4
20260504173503 69 277 2.0 5.0 0.00 0.00 0.00 53 1007.5
20260504173004 69 96 1.0 4.0 0.00 0.00 0.00 53 1007.5
20260504172504 69 278 1.0 6.0 0.00 0.00 0.00 52 1007.6
20260504172002 69 244 2.0 8.0 0.00 0.00 0.00 54 1007.3
20260504171701 68 311 1.0 8.0 0.00 0.00 0.00 52 1006.9
20260504171101 68 113 1.0 6.0 0.00 0.00 0.00 54 1006.7
20260504170557 68 96 0.0 6.0 0.00 0.00 0.00 54 1007.4
20260504170105 68 113 1.0 6.0 0.00 0.00 0.00 53 1007.5